Location: Quebec
(46.8000°N, 71.2500°W)
Time: 19:28:55
(UTC-05:00)

N. Korean satellite - Pass Details

Date: 08 October 2017
Orbit: 461 x 513 km, 97.2° (Epoch: 09 December)

Event Time Altitude Azimuth Distance (km) Brightness Sun altitude
Rises 18:39:20 0° 165° (SSE) 2,570 10.1 -5.7°
Reaches altitude 10° 18:41:25 10° 165° (SSE) 1,684 9.2 -6.1°
Maximum altitude 18:45:02 86° 77° (ENE) 495 6.5 -6.7°
Drops below altitude 10° 18:48:37 10° 349° (NNW) 1,668 9.4 -7.3°
Sets 18:50:41 0° 349° (NNW) 2,543 10.4 -7.7°
